Tracking 19909 objects as of 22-Oct-2019
HD Live streaming from Space Station
objects crossing your sky now

SL-8 DEB *

Track SL-8 DEB * now!
10-day predictions


NORAD ID: 14865
Int'l Code: 1975-094E
Perigee: 683.3 km
Apogee: 685.4 km
Inclination: 74.0 °
Period: 98.3 minutes
Semi major axis: 7055 km
RCS: 0.0088 m2 (small)
Launch date: September 30, 1975
Source: Commonwealth of Independent States (former USSR) (CIS)
Launch site: PLESETSK MISSILE AND SPACE COMPLEX (PKMTR)

Note: This is SATELLITE DEBRIS
aabbcc
Your satellite tracking list
Your tracking list is empty




NASA's NSSDC Master Catalog

Two Line Element Set (TLE):
1 14865U 75094E   19295.15985163  .00000273  00000-0  56810-4 0  9999
2 14865  74.0273 220.6572 0001496 115.6901 310.0901 14.64945887881340
Source of the keplerian elements: AFSPC